www.pogodaiklimat.ru

Погода и климат >> Архив погоды >> Россия >> Мурманская область >> Ковдор


ПОГОДА в Ковдоре

  • Прогноз погоды в Ковдоре
  • Монитор погоды в Ковдоре
  • Климат города

АРХИВ ПОГОДЫ в Ковдоре

Время (UTC), дата Ветер
(напр.,м/с)
 
Видим.   Явления Облачность Т
(С)
Тd
(С)
f
(%)
Тe
(С)
Тes
(С)
Комфортность P
(гПа)
Po
(гПа)
Тmin
(С)
Tmax
(С)
R
(мм)
R24
(мм)
S
(см)
06 15.10 ЮЗ 5
{13}
20 км 9 баллов +10.4 +8.0 85 +7 +7 1001.1 972.0 +10.3
09 15.10 З 3
{14}
20 км 10 баллов +10.8 +8.4 85 +9 +9 1002.4 973.3
12 15.10 СЗ 2
{6}
20 км в посл. час ливневой дождь 9 баллов +8.1 +6.2 88 +6 +6 1006.8 977.3
15 15.10 СЗ 1
{3}
20 км 9 баллов +6.4 +3.7 83 +5 +5 1011.1 981.3 0.3
18 15.10 СЗ 1
{2}
20 км ясно +2.7 +1.8 94 +1 +1 1013.0 982.7 +10.9 0.3
21 15.10 штиль 0
{1}
20 км 10/0
[Ac und]
+2.0 +1.8 99 +1 +1 1012.6 982.3
00 16.10 штиль 0
{1}
20 км 10 баллов +1.3 +1.2 99 -0 -0 1013.1 982.7
03 16.10 штиль 0 20 км 10 баллов +0.9 +0.9 100 -1 -1 1011.7 981.3 +0.7
06 16.10 штиль 0 20 км 7 баллов +0.3 +0.3 100 -1 -1 1010.5 980.0 0.0
09 16.10 ЮЗ 1
{2}
20 км 7 баллов +4.3 +4.2 99 +3 +3 1010.0 980.0
12 16.10 З 2
{5}
20 км ясно +6.8 +2.1 72 +5 +5 1011.1 981.3
15 16.10 З 3
{7}
20 км ясно +4.9 +1.2 77 +2 +2 1011.3 981.3
18 16.10 З 3
{7}
20 км ясно +3.1 +0.8 85 -1 -1 1014.3 984.0 +6.9
21 16.10 ЮЗ 2
{4}
20 км ясно +1.4 -0.2 89 -2 -2 1015.3 984.8
00 17.10 З 2
{6}
20 км ясно +0.6 -0.5 92 -3 -3 1016.6 986.0
03 17.10 штиль 0
{1}
20 км ясно -1.3 -1.9 96 -3 -3 1018.9 988.0 -1.5
06 17.10 В 1
{2}
20 км 7 баллов -0.3 -0.9 96 -3 -3 1017.5 986.7 -1.8
09 17.10 ЮЗ 1
{3}
20 км 10/0
[Ac und]
+3.4 +0.7 82 +2 +2 1016.0 985.7
12 17.10 ЮВ 2
{2}
20 км 10 баллов +3.7 +1.3 84 +1 +1 1015.6 985.3
15 17.10 ЮВ 1
{1}
20 км 9 баллов +3.1 +1.1 87 +2 +2 1012.9 982.7
18 17.10 Ю 1
{3}
10 км слабый ливневой дождь 9 баллов +3.3 +2.4 94 +2 +2 1010.1 980.0 +3.7 0.0
21 17.10 СВ 1
{2}
10 км слабый ливневой дождь 10 баллов +3.2 +2.8 97 +1 +1 1007.4 977.3
00 18.10 штиль 0
{1}
20 км 10 баллов +3.7 +3.4 98 +2 +2 1006.0 976.0
03 18.10 штиль 0
{2}
20 км {ливн. осадки} 10/10 300 м
[Cb cap]
+3.8 +3.7 99 +3 +3 1004.0 974.1 +2.6 3
06 18.10 ЮЗ 2
{5}
20 км в посл. час ливневой дождь 9 баллов +3.8 +3.4 97 +1 +1 1004.6 974.7 +3.1 3
09 18.10 ЮЗ 2
{5}
20 км 10/10 300 м
[Cb cap]
+4.7 +3.8 94 +2 +2 1003.8 974.0
12 18.10 ЮЗ 2
{5}
20 км 10 баллов +4.4 +3.4 93 +2 +2 1004.5 974.7
15 18.10 З 1
{4}
20 км 9 баллов +4.6 +2.6 87 +3 +3 1003.1 973.3 0.0
18 18.10 СЗ 1
{5}
8 баллов 87 1002.2 973.3
21 18.10 З 3
{6}
20 км 10/10 600 м
[Sc]
+3.8 +1.7 86 0 0 1001.8 972.0
00 19.10 ЮЗ 2
{4}
20 км 9 баллов +3.1 +1.3 88 0 0 1001.9 972.0
03 19.10 З 1
{2}
20 км 10 баллов +2.0 +1.0 93 0 0 1003.4 973.3 +1.9
06 19.10 С 1
{2}
20 км 10 баллов +2.0 +1.4 96 0 0 1003.4 973.3 +1.9
09 19.10 СЗ 1
{3}
20 км в посл. час морось 10 баллов +1.9 +1.2 95 0 0 1006.2 976.0
12 19.10 СЗ 2
{4}
20 км 10 баллов +2.5 +0.9 89 -1 -1 1008.9 978.7
15 19.10 СЗ 1
{3}
20 км 10 баллов +1.9 +0.7 92 0 0 1011.6 981.3 0.0
18 19.10 СЗ 1
{4}
10 км в посл. час морось 10 баллов +0.3 -0.3 96 -2 -2 1014.6 984.0 +2.9 0.0
21 19.10 штиль 0
{1}
20 км 10 баллов -0.7 -0.8 99 -2 -2 1016.1 985.3
00 20.10 штиль 0 20 км 9 баллов -1.0 -1.1 99 -2 -2 1016.1 985.3
03 20.10 СВ 1
{1}
20 км 2 балла -2.5 -2.6 99 -5 -5 1017.7 986.7 -2.8 0.0
06 20.10 штиль 0
{1}
20 км 4 балла -3.2 -3.3 99 -5 -5 1017.8 986.7 -3.4 0.0
09 20.10 ЮЗ 1
{1}
20 км 9/9 300 м
[St]
-1.7 -1.9 99 -4 -4 1017.6 986.7
12 20.10 штиль 0
{1}
20 км 7 баллов -0.6 -1.4 94 -2 -2 1018.8 988.0
15 20.10 штиль 0 20 км 9/3 600 м
[Sc Ac trans Ci sp]
-1.7 -2.0 98 -3 -3 1017.5 986.6
18 20.10 Ю 1
{2}
20 км 9 баллов -0.4 -1.0 96 -3 -3 1017.5 986.7 0.0
21 20.10 ЮЗ 1
{3}
20 км 10/5 600 м
[Sc Ac und]
+0.2 -0.2 97 -2 -2 1015.3 984.6
00 21.10 штиль 0
{1}
20 км в посл. час ливневой дождь 10 баллов +1.5 +1.1 97 0 0 1014.5 984.0
03 21.10 ЮЗ 3
{6}
10 км дым {ливн. осадки} 10/10 300 м
[Cb cap]
+2.4 +2.1 98 -2 -2 1011.3 981.0 -2.0 0.3
06 21.10 ЮЗ 3
{7}
20 км слабый ливневой дождь 10 баллов +3.4 +2.4 93 -1 -1 1008.8 978.7 -0.7 0.0
09 21.10 ЮЗ 4
{11}
20 км 10 баллов +4.4 +2.6 88 0 0 1005.9 976.0
12 21.10 ЮЗ 4
{9}
20 км слабый ливневой дождь 10 баллов +4.1 +3.1 93 -1 -1 1001.8 972.0
15 21.10 ЮЗ 4
{12}
20 км в посл. час ливневой дождь 9 баллов +5.4 +3.9 90 +1 +1 998.9 969.3 8
18 21.10 З 3-9
{10}
20 км {ливн. осадки} 10/10 300 м
[Cb cap]
+5.8 +3.2 83 +3 +3 996.7 967.2 +5.8 0.8
21 21.10 З 3
{10}
20 км 9 баллов +5.7 +3.2 84 +2 +2 996.2 966.7
00 22.10 ЮЗ 2
{6}
20 км 9 баллов +4.4 +2.3 86 +2 +2 994.9 965.3
03 22.10 З 1
{3}
20 км 6 баллов +3.4 +1.9 90 +2 +2 992.3 962.7 +3.4

 

Местоположение метеостанции Ковдор (Мурманская область, Россия): широта 67.57 долгота 30.45 высота над уровнем моря 246 м.

В архиве по умолчанию представлена погода в Ковдоре за последнюю неделю. Архивные данные за месяц целиком и за предыдущие месяцы, начиная с января 2011 года, Вы можете получить, выбрав интересующий диапазон дат из раскрывающегося списка и нажав кнопку "Ввод!".


*Определитесь, кто Вы:
робот инопланетянин человек

Внимание! Время в таблицах - всемирное. Для получения местного времени необходимо прибавить поправку, которая в Ковдоре равна 3 ч.

Смотрите также архив погоды в соседних городах и на ближайших метеорологических станциях:

Погода в Salla Varriotunturi (Финляндия) (41 км)
Погода в Алакуртти (Мурманская область, Россия) (69 км)
Погода в Salla Naruska (Финляндия) (71 км)
Погода в Ниванкюле (Мурманская область, Россия) (88 км)
Погода в Зашейке (Мурманская область, Россия) (91 км)
Погода в Кандалакше (Мурманская область, Россия) (94 км)
Погода в Порту Витино (Мурманская область, Россия) (97 км)
Погода в Порту Кандалакша (Мурманская область, Россия) (98 км)
Погода в Savukoski (Финляндия) (102 км)
Погода в Зареченске (Мурманская область, Россия) (108 км)

Пояснения к столбцам:

Ветер - указаны скорость ветра в м/с - средняя за 10 мин, порывы в срок и между сроками (в фигурных скобках) и направление, откуда дует ветер: С - северный, СВ - северо-восточный, В - восточный, ЮВ - юго-восточный, Ю - южный, ЮЗ - юго-западный, З - западный, СЗ - северо-западный.
Видимость - горизонтальная дальность видимости в метрах или километрах. При видимости от 1 до 10 км при отсутствии осадков обычно наблюдается дымка, при ухудшении видимости до 1 км и менее - туман. В сухую погоду видимость может ухудшаться дымом, пылью или мглою.
Явления - указаны атмосферные явления, наблюдавшиеся в срок или в последний час перед сроком; фигурными скобками обозначены явления, наблюдавшиеся между сроками (за 1-3 часа до срока); квадратными скобками обозначены град или гололедные отложения с указанием их диаметра в мм.
Облачность - указаны через наклонную черту общая и нижняя облачность в баллах и высота нижней границы облаков в метрах; квадратными скобками обозначены формы облаков: Ci - перистые, Cs - перисто-слоистые, Cc - перисто-кучевые, Ac - высококучевые, As - высокослоистые, Sc - слоисто-кучевые, Ns - слоисто-дождевые, Cu - кучевые, Cb - кучево-дождевые. Подробнее классификацию облаков см. в Атласе облаков (PDF).
T - Температура воздуха - температура, измеренная на высоте 2 м над землей.
Td - Температура точки росы - температура, при понижении до которой содержащийся в воздухе водяной пар достигнет насыщения.
f - Относительная влажность воздуха - влажноcть воздуха, измеренная на высоте 2 м над землей.
Te - Эффективная температура - температура, которую ощущает одетый по сезону человек в тени. Характеристика душности погоды. При расчете учитывается влияние влажности воздуха и скорости ветра на теплоощущения человека.
Tes - Эффективная температура на солнце - температура, которую ощущает человек, с поправкой на солнечный нагрев. Характеристика знойности погоды. Зависит от высоты солнца над горизонтом, облачности и скорости ветра. Ночью, в пасмурную погоду, а также при ветре 12 м/с и более поправка равна нулю.
P - Атмосферное давление - приведенное к уровню моря атмосферное давление.
Po - Атмосферное давление - измеренное на уровне метеостанции атмосферное давление.
Tmin - Минимальная температура - минимум температуры воздуха на высоте 2 м над землей.
Tmax - Максимальная температура - максимум температуры воздуха на высоте 2 м над землей.
R - Количество осадков - Количество выпавших осадков за период времени, мм. При наведении курсора мыши на число - период времени, за который выпало указанное количество осадков.
R24 - Количество осадков - Количество выпавших осадков за 24 часа, мм.
S - Снежный покров - Высота снежного покрова, см. При наведении курсора мыши на число - состояние снежного покрова и степень покрытия местности в баллах.